Weather Roundup
Issued by NWS

Home | Current Version | Previous Version | Graphics & Text | Print | Product List | Glossary Off
Versions: 1 2 3 4 5 6 7 8 9 10 11 12 13 14 15 16 17 18 19 20 21 22 23 24 25 26 27 28 29 30 31 32 33 34 35 36 37 38 39 40 41 42 43 44 45 46 47 48 49 50

138
NZUS93 KARX 240159
HRRWXR

CURRENT HOURLY OBSERVATIONS ACROSS
MUCH OF THE UPPER MISSISSIPPI VALLEY
NATIONAL WEATHER SERVICE LA CROSSE WI
800 PM CST FRI FEB 23 2018


...SOUTHEAST MINNESOTA...


CITY           SKY/WX    TMP DP  RH WIND       PRES   REMARKS
ROCHESTER      FAIR      15  14  95 W5        30.26S FOG     WCI   8
ROCHESTER/MAYO FAIR      19  17  93 W7        30.28S WCI  10
WINONA         FAIR      23  19  86 CALM      30.29S
AUSTIN         FAIR      18  16  93 NW3       30.28S
ALBERT LEA     FAIR      18  16  93 CALM      30.28S
DODGE CENTER   FAIR      18  16  93 W6        30.26S WCI   9
PRESTON        FAIR      19  16  89 NW7       30.27F WCI   9
OWATONNA       FAIR       9   7  92 W3        30.28S FOG
FARIBAULT      FAIR      18  18 100 W5        30.29S WCI  11
$$

...ELSEWHERE IN MINNESOTA...


CITY           SKY/WX    TMP DP  RH WIND       PRES   REMARKS
MINNEAPOLIS    FAIR      23  19  85 SW6       30.29R WCI  16
INTNL FALLS    FAIR      19   7  59 W8G17     30.14R WCI   9
DULUTH         CLOUDY    29  20  69 W8        30.16R WCI  21
RED WING       FAIR      21  16  79 W3        30.28F
REDWOOD FALLS  CLEAR     18  15  88 W7        30.31S WCI   9
MANKATO        FAIR      19  17  92 W7        30.31S WCI  10
WORTHINGTON    CLOUDY    19  17  92 W10       30.28S WCI   7
FAIRMONT       FOG       10   6  84 N6        30.30R VSB 1/2 WCI   0
$$

...SOUTHWEST WISCONSIN...


CITY           SKY/WX    TMP DP  RH WIND       PRES   REMARKS
LA CROSSE      CLOUDY    26  21  81 W9        30.30R HAZE    WCI  17
PRAIRIE DU CHI FAIR      29  23  78 W7        30.29S WCI  22
BOSCOBEL       FAIR      30  23  75 W3        30.28S
LONE ROCK      FAIR      31  25  78 NW7       30.27R WCI  24
PLATTEVILLE    FAIR      30  28  90 NW9       30.24F WCI  22
FORT MC COY    CLOUDY    28  23  83 NW6       30.29R WCI  21
CAMP DOUGLAS   CLOUDY    28  22  80 NW12      30.26R WCI  18
MAUSTON-NEW LI CLOUDY    30  25  80 NW10      30.25R WCI  21
VIROQUA        FAIR      26  24  90 NW8       30.25R WCI  18
WIS DELLS      FAIR      29  24  81 NW3       30.24R
$$

...ELSEWHERE IN WISCONSIN...


CITY           SKY/WX    TMP DP  RH WIND       PRES   REMARKS
MILWAUKEE      MOCLDY    37  30  75 W5        30.23S WCI  33
MADISON        MOCLDY    32  26  78 CALM      30.25R
GREEN BAY      CLOUDY    33  23  66 NW16      30.23R WCI  23
EAU CLAIRE     NOT AVBL
BLACK RVR FLS  FAIR      24  19  83 W5        30.27R WCI  18
MEDFORD        CLOUDY    26  21  83 W6        30.21R WCI  19
WAUSAU         CLOUDY    28  21  75 NW12      30.20R WCI  18
WIS RAPIDS     CLOUDY    29  20  69 NW6       30.25R WCI  23
MARSHFIELD     CLOUDY    27  21  78 W13       30.22R WCI  16
RICE LAKE      FAIR      20  19  93 CALM      30.25S
$$

...NORTHEAST IOWA...


CITY           SKY/WX    TMP DP  RH WIND       PRES   REMARKS
WATERLOO       FAIR      25  22  88 NW12      30.28F WCI  14
DUBUQUE        FAIR      29  23  78 N9        30.24S WCI  20
DECORAH        FAIR      25  23  93 NW8       30.26F WCI  16
MASON CITY     CLOUDY    16  14  92 NW7       30.29S WCI   6
CHARLES CITY   FAIR      23  23 100 NW7       30.28F WCI  15
OELWEIN        FAIR      27  27 100 NW12      30.27S WCI  16
$$

...ELSEWHERE IN IOWA...


CITY           SKY/WX    TMP DP  RH WIND       PRES   REMARKS
DES MOINES     CLOUDY    26  22  84 N6        30.30R WCI  19
IOWA CITY      FAIR      30  24  78 W3        30.31R
FORT DODGE     CLOUDY    20  18  92 N5        30.29F WCI  13
MARSHALLTOWN   MOCLDY    25  23  92 N10       30.27F WCI  15
CEDAR RAPIDS   FAIR      28  23  81 NW5       30.26S WCI  23
$$

...NORTHERN ILLINOIS...


CITY           SKY/WX    TMP DP  RH WIND       PRES   REMARKS
CHICAGO-OHARE  CLOUDY    37  32  82 W5        30.24S WCI  33
CHICAGO-MIDWAY CLOUDY    39  33  79 W7        30.25S WCI  34
MOLINE         FAIR      33  28  81 NW3       30.28R
ROCKFORD       CLOUDY    32  27  81 W3        30.27R
PEORIA         CLOUDY    36  33  89 S5        30.29R WCI  32
$$

NOTE: "FAIR" INDICATES FEW OR NO CLOUDS BELOW 12,000 FEET WITH NO
SIGNIFICANT WEATHER AND/OR OBSTRUCTIONS TO VISIBILITY. WIND
SPEEDS ARE IN MILES-PER-HOUR.




USA.gov is the U.S. government's official web portal to all federal, state and local government web resources and services.